Weather History for Poplar Bluff, MO

Change the Weather History Date:

Thursday, July 11, 2013

  Actual Average Record
Temperature  
Mean Temperature 80 °F -  
Max Temperature 89 °F 94 °F 106 °F (1930)
Min Temperature 71 °F 70 °F 53 °F (1953)
Cooling Degree Days 15    
Growing Degree Days 30 (Base 50)    
Moisture  
Dew Point 68 °F    
Average Humidity 66    
Maximum Humidity 89    
Minimum Humidity 43    
Precipitation  
Precipitation 0.00 in - - ()
Sea Level Pressure  
Sea Level Pressure 29.96 in    
Wind  
Wind Speed 5 mph (NNE)    
Max Wind Speed 20 mph    
Max Gust Speed 31 mph    
Visibility 10 miles    
Events      
Averages and records for this station are not official NWS values.
T = Trace of Precipitation, MM = Missing Value Source: NWS Daily Summary

Daily Weather History Graph

Daily Weather History Graph

Search for Another Location

Airport:

Trip Planner

Search our weather history database for the weather conditions in past years. The results will help you decide how hot, cold, wet, or windy it might be!

Date:

Astronomy

Jul. 11, 2013 Rise Set
Actual Time 5:51 AM CDT 8:21 PM CDT
Civil Twilight 5:21 AM CDT 8:51 PM CDT
Nautical Twilight 4:44 AM CDT 9:29 PM CDT
Astronomical Twilight 4:02 AM CDT 10:10 PM CDT
Moon 9:03 AM CDT (7/11) 10:09 PM CDT (7/11)
Length of Visible Light 15h 30m
Length of Day
14h 30m
Waxing Crescent, 11% of the Moon is Illuminated
Jul 11
Waxing Crescent
Jul 15
First Quarter
Jul 22
Full
Jul 29
Last Quarter
Aug 6
New

Hourly Weather History & Observations

Time (CDT) Temp. Heat Index Dew Point Humidity Pressure Visibility Wind Dir Wind Speed Gust Speed Precip Events Conditions
12:53 AM 80.1 °F 85.1 °F 75.0 °F 85% 29.92 in 10.0 mi Calm Calm - N/A   Mostly Cloudy
1:53 AM 79.0 °F - 75.0 °F 88% 29.92 in 10.0 mi Calm Calm - N/A   Scattered Clouds
2:53 AM 79.0 °F - 75.0 °F 88% 29.93 in 10.0 mi Calm Calm - N/A   Partly Cloudy
3:34 AM 78.8 °F - 75.2 °F 89% 29.95 in 10.0 mi Calm Calm - N/A   Mostly Cloudy
3:41 AM 78.8 °F - 75.2 °F 89% 29.95 in 10.0 mi Calm Calm - N/A   Scattered Clouds
3:53 AM 78.1 °F - 73.9 °F 87% 29.93 in 10.0 mi North 3.5 mph - N/A   Scattered Clouds
4:53 AM 79.0 °F - 73.0 °F 82% 29.93 in 10.0 mi NNE 4.6 mph - N/A   Mostly Cloudy
5:53 AM 78.1 °F - 71.1 °F 79% 29.95 in 10.0 mi NNE 19.6 mph 31.1 mph N/A   Overcast
6:53 AM 77.0 °F - 69.1 °F 76% 29.95 in 10.0 mi NNE 8.1 mph - N/A   Clear
7:53 AM 79.0 °F - 69.1 °F 72% 29.96 in 10.0 mi NNE 8.1 mph - N/A   Clear
8:53 AM 82.0 °F 85.5 °F 69.1 °F 65% 29.97 in 10.0 mi NNE 6.9 mph - N/A   Clear
9:53 AM 84.0 °F 88.4 °F 70.0 °F 63% 29.96 in 10.0 mi NE 10.4 mph - N/A   Clear
10:53 AM 84.9 °F 88.8 °F 69.1 °F 59% 29.98 in 10.0 mi NNE 9.2 mph - N/A   Clear
11:53 AM 87.1 °F 90.6 °F 68.0 °F 53% 29.98 in 10.0 mi NNE 10.4 mph 16.1 mph N/A   Mostly Cloudy
12:53 PM 87.1 °F 89.9 °F 66.9 °F 51% 29.99 in 10.0 mi NE 11.5 mph - N/A   Mostly Cloudy
1:53 PM 89.1 °F 92.1 °F 66.9 °F 48% 29.98 in 10.0 mi NNE 6.9 mph 19.6 mph N/A   Partly Cloudy
2:53 PM 88.0 °F 89.6 °F 64.9 °F 46% 29.97 in 10.0 mi NE 12.7 mph 19.6 mph N/A   Clear
3:53 PM 89.1 °F 91.0 °F 64.9 °F 45% 29.97 in 10.0 mi NNE 10.4 mph - N/A   Clear
4:53 PM 87.1 °F 87.5 °F 62.1 °F 43% 29.96 in 10.0 mi NE 13.8 mph - N/A   Clear
5:53 PM 86.0 °F 86.3 °F 62.1 °F 44% 29.96 in 10.0 mi NE 13.8 mph - N/A   Clear
6:53 PM 84.0 °F 84.4 °F 61.0 °F 46% 29.95 in 10.0 mi NNE 12.7 mph - N/A   Clear
7:53 PM 81.0 °F 81.7 °F 61.0 °F 50% 29.95 in 10.0 mi NNE 10.4 mph - N/A   Clear
8:53 PM 75.9 °F - 63.0 °F 64% 29.96 in 10.0 mi North 4.6 mph - N/A   Clear
9:53 PM 73.9 °F - 63.0 °F 68% 29.99 in 10.0 mi Calm Calm - N/A   Clear
10:53 PM 71.1 °F - 63.0 °F 75% 30.01 in 10.0 mi North 3.5 mph - N/A   Clear
11:53 PM 71.1 °F - 60.1 °F 68% 30.01 in 10.0 mi NNE 3.5 mph - N/A   Clear